TimeCDT,TemperatureF,Dew PointF,Humidity,Sea Level PressureIn,VisibilityMPH,Wind Direction,Wind SpeedMPH,Gust SpeedMPH,PrecipitationIn,Events,Conditions,WindDirDegrees,DateUTC
12:53 AM,57.0,50.0,77,30.07,10.0,ESE,3.5,-,N/A,,Clear,110,2013-09-02 05:53:00
1:53 AM,54.0,50.0,86,30.08,10.0,Calm,Calm,-,N/A,,Clear,0,2013-09-02 06:53:00
2:53 AM,54.0,50.0,86,30.07,10.0,Calm,Calm,-,N/A,,Clear,0,2013-09-02 07:53:00
3:53 AM,53.1,48.9,86,30.07,10.0,Calm,Calm,-,N/A,,Clear,0,2013-09-02 08:53:00
4:53 AM,51.1,48.0,89,30.07,10.0,Calm,Calm,-,N/A,,Clear,0,2013-09-02 09:53:00
5:53 AM,50.0,48.0,93,30.07,10.0,Calm,Calm,-,N/A,,Clear,0,2013-09-02 10:53:00
6:53 AM,50.0,48.0,93,30.08,10.0,Calm,Calm,-,N/A,,Clear,0,2013-09-02 11:53:00
7:53 AM,52.0,50.0,93,30.11,10.0,Calm,Calm,-,N/A,,Clear,0,2013-09-02 12:53:00
8:53 AM,60.1,55.0,83,30.11,10.0,ESE,4.6,-,N/A,,Clear,120,2013-09-02 13:53:00
9:53 AM,66.0,55.9,70,30.11,10.0,SSE,3.5,-,N/A,,Clear,150,2013-09-02 14:53:00
10:53 AM,75.9,55.9,50,30.10,10.0,SSE,8.1,-,N/A,,Clear,150,2013-09-02 15:53:00
11:53 AM,80.1,55.0,42,30.08,10.0,SE,5.8,-,N/A,,Clear,140,2013-09-02 16:53:00
12:53 PM,82.9,54.0,37,30.05,10.0,South,10.4,-,N/A,,Clear,190,2013-09-02 17:53:00
1:53 PM,84.9,53.1,33,30.03,10.0,SSW,9.2,-,N/A,,Clear,200,2013-09-02 18:53:00
2:53 PM,87.1,55.0,33,30.01,10.0,South,10.4,16.1,N/A,,Clear,190,2013-09-02 19:53:00
3:53 PM,88.0,54.0,31,29.98,10.0,South,9.2,-,N/A,,Clear,180,2013-09-02 20:53:00
4:53 PM,88.0,54.0,31,29.96,10.0,South,8.1,-,N/A,,Clear,180,2013-09-02 21:53:00
5:53 PM,88.0,55.9,34,29.96,10.0,South,6.9,-,N/A,,Clear,180,2013-09-02 22:53:00
6:53 PM,84.9,57.9,40,29.96,10.0,SE,4.6,-,N/A,,Clear,140,2013-09-02 23:53:00
7:53 PM,75.9,60.1,58,29.97,10.0,ESE,11.5,-,N/A,,Clear,110,2013-09-03 00:53:00
8:53 PM,71.1,60.1,68,29.97,10.0,ESE,9.2,-,N/A,,Clear,110,2013-09-03 01:53:00
9:53 PM,68.0,60.1,76,29.99,10.0,East,10.4,-,N/A,,Clear,100,2013-09-03 02:53:00
10:53 PM,64.9,60.1,84,29.99,10.0,ESE,6.9,-,N/A,,Clear,110,2013-09-03 03:53:00
11:53 PM,63.0,59.0,87,29.99,10.0,East,8.1,-,N/A,,Clear,100,2013-09-03 04:53:00